DLH320 EDDF-LIEO

Flight info

Callsign DLH320
Flight time 1h 43m
Altitude 37000
Route ANEKI2L/18 ANEKI Y163 NATOR DCT TRA DCT RIPUS DCT GERSA DCT SOSON DCT ODINA DCT KEMMI DCT DEVOX DCT ANAKI DCT TORTU DCT OKROK DCT AJO A9 CORSI
Aircraft A320/M-SDE2E3FGIJ1LORWXYZ/HB1

Departure

Time 2026-05-04 18:14
Airport Frankfurt Main Airport (EDDF)

Arrival

Time 2026-05-04 19:58
Airport Olbia Costa Smeralda Airport (LIEO)
Time Latitude Longitude Altitude Speed Heading
2026-05-04 17:39 50.04390 8.56168 356 ft 0 kts 155°
2026-05-04 17:40 50.04389 8.56169 356 ft 0 kts 155°
2026-05-04 18:03 50.04400 8.56161 364 ft 4 kts 154°
2026-05-04 18:03 50.04424 8.56143 359 ft 2 kts 156°
2026-05-04 18:03 50.04436 8.56135 364 ft 4 kts 170°
2026-05-04 18:03 50.04461 8.56153 360 ft 3 kts 249°
2026-05-04 18:04 50.04458 8.56144 359 ft 4 kts 249°
2026-05-04 18:04 50.04451 8.56111 361 ft 0 kts 249°
2026-05-04 18:08 50.04440 8.56068 363 ft 10 kts 247°
2026-05-04 18:08 50.04403 8.56029 356 ft 6 kts 187°
2026-05-04 18:08 50.04360 8.56046 357 ft 10 kts 158°
2026-05-04 18:08 50.04300 8.56076 355 ft 9 kts 178°
2026-05-04 18:09 50.04201 8.55779 353 ft 19 kts 249°
2026-05-04 18:09 50.04102 8.55367 356 ft 21 kts 249°
2026-05-04 18:10 50.04055 8.55169 356 ft 18 kts 249°
2026-05-04 18:10 50.04011 8.54983 355 ft 18 kts 250°
2026-05-04 18:10 50.03965 8.54794 357 ft 19 kts 251°
2026-05-04 18:10 50.03922 8.54616 356 ft 17 kts 248°
2026-05-04 18:11 50.03877 8.54430 350 ft 19 kts 249°
2026-05-04 18:11 50.03819 8.54280 351 ft 17 kts 237°
2026-05-04 18:11 50.03770 8.54100 349 ft 19 kts 249°
2026-05-04 18:11 50.03720 8.53889 351 ft 22 kts 250°
2026-05-04 18:12 50.03663 8.53653 342 ft 25 kts 249°
2026-05-04 18:12 50.03600 8.53400 338 ft 26 kts 249°
2026-05-04 18:12 50.03535 8.53130 338 ft 27 kts 250°
2026-05-04 18:12 50.03477 8.52890 334 ft 22 kts 248°
2026-05-04 18:13 50.03426 8.52702 334 ft 17 kts 249°
2026-05-04 18:13 50.03381 8.52596 334 ft 7 kts 201°
2026-05-04 18:13 50.03076 8.52596 336 ft 76 kts 179°
2026-05-04 18:14 50.02310 8.52604 332 ft 141 kts 180°
2026-05-04 18:14 50.01193 8.52614 610 ft 169 kts 180°
2026-05-04 18:14 50.00012 8.52650 1332 ft 170 kts 178°
2026-05-04 18:15 49.97459 8.52812 2358 ft 205 kts 178°
2026-05-04 18:15 49.94345 8.53032 3525 ft 234 kts 178°
2026-05-04 18:15 49.92716 8.53145 3926 ft 234 kts 177°
2026-05-04 18:16 49.91085 8.53259 4842 ft 233 kts 177°
2026-05-04 18:16 49.89465 8.53371 5854 ft 232 kts 178°
2026-05-04 18:16 49.87857 8.53480 6818 ft 231 kts 178°
2026-05-04 18:17 49.84614 8.53704 8604 ft 236 kts 179°
2026-05-04 18:17 49.82966 8.53815 9490 ft 239 kts 180°
2026-05-04 18:17 49.79630 8.54036 11125 ft 245 kts 180°
2026-05-04 18:18 49.77916 8.54108 11912 ft 247 kts 185°
2026-05-04 18:18 49.76130 8.53895 12299 ft 269 kts 187°
2026-05-04 18:18 49.74182 8.53634 12594 ft 293 kts 187°
2026-05-04 18:18 49.72077 8.53346 12877 ft 315 kts 187°
2026-05-04 18:19 49.67597 8.52743 14205 ft 328 kts 187°
2026-05-04 18:19 49.65307 8.52441 14898 ft 332 kts 186°
2026-05-04 18:19 49.62990 8.52138 15561 ft 337 kts 186°
2026-05-04 18:20 49.60641 8.51828 16249 ft 340 kts 186°
2026-05-04 18:20 49.58267 8.51514 16944 ft 344 kts 186°
2026-05-04 18:20 49.55870 8.51196 17629 ft 348 kts 186°
2026-05-04 18:20 49.53449 8.50879 18300 ft 351 kts 186°
2026-05-04 18:21 49.51001 8.50560 18896 ft 354 kts 186°
2026-05-04 18:21 49.48540 8.50240 19509 ft 357 kts 186°
2026-05-04 18:21 49.46056 8.49913 20132 ft 359 kts 186°
2026-05-04 18:21 49.43562 8.49586 20751 ft 362 kts 186°
2026-05-04 18:22 49.41043 8.49258 21376 ft 364 kts 186°
2026-05-04 18:22 49.38517 8.48930 22011 ft 366 kts 186°
2026-05-04 18:22 49.35969 8.48600 22642 ft 368 kts 186°
2026-05-04 18:22 49.33408 8.48266 23264 ft 371 kts 186°
2026-05-04 18:23 49.30828 8.47925 23813 ft 373 kts 186°
2026-05-04 18:23 49.28233 8.47583 24305 ft 376 kts 186°
2026-05-04 18:23 49.25621 8.47243 24785 ft 378 kts 187°
2026-05-04 18:23 49.22990 8.46900 25258 ft 380 kts 187°
2026-05-04 18:24 49.20343 8.46554 25720 ft 383 kts 187°
2026-05-04 18:24 49.17686 8.46209 26175 ft 385 kts 187°
2026-05-04 18:24 49.15010 8.45863 26619 ft 387 kts 187°
2026-05-04 18:24 49.12324 8.45517 27064 ft 389 kts 187°
2026-05-04 18:25 49.09633 8.45169 27490 ft 391 kts 187°
2026-05-04 18:25 49.06917 8.44803 27912 ft 392 kts 189°
2026-05-04 18:25 49.04234 8.44015 28323 ft 393 kts 194°
2026-05-04 18:25 49.01565 8.43083 28732 ft 395 kts 194°
2026-05-04 18:26 48.98876 8.42145 29139 ft 397 kts 194°
2026-05-04 18:26 48.96179 8.41209 29552 ft 398 kts 194°
2026-05-04 18:26 48.93476 8.40271 29950 ft 400 kts 194°
2026-05-04 18:26 48.90756 8.39325 30282 ft 402 kts 194°
2026-05-04 18:27 48.88024 8.38370 30591 ft 404 kts 194°
2026-05-04 18:27 48.85284 8.37413 30896 ft 405 kts 194°
2026-05-04 18:27 48.82529 8.36457 31199 ft 407 kts 194°
2026-05-04 18:27 48.79761 8.35501 31493 ft 409 kts 194°
2026-05-04 18:28 48.76991 8.34536 31838 ft 409 kts 194°
2026-05-04 18:28 48.74226 8.33544 31958 ft 408 kts 195°
2026-05-04 18:28 48.68711 8.31518 32321 ft 408 kts 195°
2026-05-04 18:29 48.65957 8.30502 32726 ft 406 kts 195°
2026-05-04 18:29 48.63217 8.29494 33151 ft 405 kts 195°
2026-05-04 18:29 48.60482 8.28493 33571 ft 404 kts 195°
2026-05-04 18:29 48.57754 8.27504 33978 ft 403 kts 195°
2026-05-04 18:30 48.52308 8.25541 34614 ft 402 kts 194°
2026-05-04 18:30 48.49535 8.24897 34874 ft 405 kts 186°
2026-05-04 18:30 48.46707 8.24969 35133 ft 409 kts 176°
2026-05-04 18:31 48.43890 8.25619 35390 ft 411 kts 174°
2026-05-04 18:31 48.41063 8.26313 35637 ft 412 kts 174°
2026-05-04 18:31 48.38236 8.27002 35898 ft 412 kts 174°
2026-05-04 18:31 48.35405 8.27687 36123 ft 412 kts 174°
2026-05-04 18:32 48.32569 8.28372 36307 ft 414 kts 174°
2026-05-04 18:32 48.29722 8.29060 36516 ft 415 kts 174°
2026-05-04 18:32 48.26873 8.29746 36736 ft 415 kts 174°
2026-05-04 18:32 48.24021 8.30431 36945 ft 416 kts 174°
2026-05-04 18:33 48.21167 8.31114 37008 ft 414 kts 174°
2026-05-04 18:33 48.15497 8.32472 37008 ft 412 kts 174°
2026-05-04 18:34 48.09839 8.33853 37009 ft 412 kts 174°
2026-05-04 18:34 48.04180 8.35243 37014 ft 412 kts 174°
2026-05-04 18:35 47.98519 8.36611 37015 ft 412 kts 174°
2026-05-04 18:35 47.92856 8.37966 37014 ft 412 kts 174°
2026-05-04 18:36 47.87192 8.39325 36999 ft 412 kts 174°
2026-05-04 18:36 47.81528 8.40682 37007 ft 413 kts 174°
2026-05-04 18:37 47.75852 8.42041 37004 ft 413 kts 174°
2026-05-04 18:37 47.70179 8.43401 36973 ft 414 kts 174°
2026-05-04 18:38 47.64519 8.44540 36972 ft 413 kts 177°
2026-05-04 18:38 47.58793 8.45313 36986 ft 413 kts 178°
2026-05-04 18:39 47.53155 8.46034 36987 ft 414 kts 178°
2026-05-04 18:39 47.47326 8.46859 36984 ft 414 kts 178°
2026-05-04 18:40 47.41587 8.47713 36990 ft 415 kts 178°
2026-05-04 18:40 47.35842 8.48576 36994 ft 415 kts 178°
2026-05-04 18:41 47.30092 8.49416 37003 ft 415 kts 178°
2026-05-04 18:41 47.24344 8.50243 37001 ft 415 kts 178°
2026-05-04 18:42 47.18594 8.51076 37005 ft 415 kts 178°
2026-05-04 18:42 47.12847 8.51905 37009 ft 415 kts 178°
2026-05-04 18:43 47.07090 8.52745 37011 ft 416 kts 178°
2026-05-04 18:43 47.01344 8.53590 36997 ft 415 kts 178°
2026-05-04 18:44 46.95585 8.54415 37017 ft 416 kts 178°
2026-05-04 18:44 46.89820 8.55242 37024 ft 416 kts 178°
2026-05-04 18:45 46.84061 8.56078 37018 ft 415 kts 178°
2026-05-04 18:45 46.78296 8.56909 37008 ft 416 kts 178°
2026-05-04 18:46 46.72528 8.57733 37042 ft 417 kts 178°
2026-05-04 18:46 46.66753 8.58552 37051 ft 417 kts 178°
2026-05-04 18:47 46.60973 8.59372 37068 ft 417 kts 178°
2026-05-04 18:47 46.55202 8.60195 37078 ft 417 kts 178°
2026-05-04 18:48 46.49430 8.61013 37079 ft 417 kts 178°
2026-05-04 18:48 46.44628 8.61686 37087 ft 417 kts 178°
2026-05-04 18:49 46.38852 8.62495 37087 ft 417 kts 178°
2026-05-04 18:49 46.32147 8.63440 37092 ft 417 kts 178°
2026-05-04 18:50 46.27312 8.64125 37086 ft 416 kts 178°
2026-05-04 18:50 46.21548 8.64929 37073 ft 416 kts 178°
2026-05-04 18:51 46.15783 8.65732 37075 ft 416 kts 178°
2026-05-04 18:51 46.10052 8.66535 37082 ft 416 kts 179°
2026-05-04 18:52 46.04289 8.67241 37085 ft 415 kts 179°
2026-05-04 18:52 45.98519 8.67859 37081 ft 416 kts 180°
2026-05-04 18:53 45.92753 8.68478 37080 ft 416 kts 179°
2026-05-04 18:53 45.86982 8.69133 37082 ft 416 kts 179°
2026-05-04 18:54 45.81208 8.69790 37048 ft 416 kts 180°
2026-05-04 18:54 45.75428 8.70440 37058 ft 417 kts 180°
2026-05-04 18:55 45.69643 8.71082 37067 ft 417 kts 180°
2026-05-04 18:55 45.60959 8.72049 37069 ft 417 kts 180°
2026-05-04 18:56 45.55174 8.72701 37084 ft 417 kts 180°
2026-05-04 18:56 45.49389 8.73341 37082 ft 417 kts 180°
2026-05-04 18:57 45.43607 8.73969 37067 ft 417 kts 180°
2026-05-04 18:57 45.37832 8.74612 37070 ft 416 kts 180°
2026-05-04 18:58 45.32056 8.75255 37074 ft 416 kts 180°
2026-05-04 18:58 45.26323 8.75895 37080 ft 416 kts 180°
2026-05-04 18:59 45.20550 8.76533 37102 ft 416 kts 180°
2026-05-04 18:59 45.14784 8.77159 37116 ft 415 kts 180°
2026-05-04 19:00 45.09023 8.77797 37116 ft 415 kts 180°
2026-05-04 19:00 45.03273 8.78435 37112 ft 414 kts 181°
2026-05-04 19:01 44.97534 8.79053 37089 ft 413 kts 181°
2026-05-04 19:01 44.91795 8.79668 37067 ft 413 kts 181°
2026-05-04 19:02 44.86063 8.80296 37072 ft 413 kts 181°
2026-05-04 19:02 44.80336 8.80709 37068 ft 408 kts 189°
2026-05-04 19:03 44.74931 8.78903 37076 ft 396 kts 208°
2026-05-04 19:03 44.70038 8.75456 37084 ft 398 kts 202°
2026-05-04 19:04 44.67320 8.74604 37085 ft 404 kts 191°
2026-05-04 19:04 44.64493 8.74452 37079 ft 408 kts 186°
2026-05-04 19:04 44.58815 8.74278 37090 ft 408 kts 187°
2026-05-04 19:05 44.53147 8.74004 37098 ft 408 kts 188°
2026-05-04 19:05 44.47514 8.73730 37106 ft 408 kts 187°
2026-05-04 19:06 44.41836 8.73475 37109 ft 408 kts 187°
2026-05-04 19:06 44.36162 8.73234 37111 ft 408 kts 187°
2026-05-04 19:07 44.30486 8.72999 37110 ft 408 kts 187°
2026-05-04 19:07 44.24807 8.72760 37082 ft 408 kts 188°
2026-05-04 19:08 44.19116 8.72874 37090 ft 415 kts 178°
2026-05-04 19:08 44.13416 8.74490 37093 ft 418 kts 175°
2026-05-04 19:09 44.07722 8.76149 37073 ft 418 kts 175°
2026-05-04 19:09 44.02026 8.77800 37068 ft 418 kts 175°
2026-05-04 19:10 43.96327 8.79433 37066 ft 418 kts 175°
2026-05-04 19:10 43.90629 8.81069 37067 ft 418 kts 175°
2026-05-04 19:11 43.84931 8.82697 37050 ft 418 kts 175°
2026-05-04 19:11 43.79268 8.84324 37049 ft 419 kts 175°
2026-05-04 19:12 43.70715 8.86777 37057 ft 419 kts 175°
2026-05-04 19:13 43.65006 8.88401 37040 ft 419 kts 175°
2026-05-04 19:13 43.59294 8.90029 37038 ft 419 kts 175°
2026-05-04 19:14 43.53579 8.91647 37041 ft 419 kts 175°
2026-05-04 19:14 43.47860 8.93271 37030 ft 420 kts 175°
2026-05-04 19:15 43.42143 8.94898 37031 ft 420 kts 175°
2026-05-04 19:15 43.36430 8.95569 37035 ft 405 kts 192°
2026-05-04 19:16 43.30813 8.94899 37040 ft 405 kts 192°
2026-05-04 19:16 43.25189 8.94237 37039 ft 405 kts 192°
2026-05-04 19:17 43.19570 8.93586 37046 ft 405 kts 192°
2026-05-04 19:17 43.13951 8.92945 37050 ft 405 kts 192°
2026-05-04 19:18 43.08339 8.92308 37055 ft 405 kts 192°
2026-05-04 19:18 43.02735 8.91663 37051 ft 404 kts 192°
2026-05-04 19:19 42.97130 8.91020 37047 ft 404 kts 192°
2026-05-04 19:19 42.91532 8.90382 37045 ft 404 kts 192°
2026-05-04 19:20 42.85937 8.89733 37025 ft 403 kts 192°
2026-05-04 19:20 42.80381 8.89090 37035 ft 403 kts 192°
2026-05-04 19:21 42.74792 8.88451 37043 ft 403 kts 192°
2026-05-04 19:21 42.69208 8.87810 37048 ft 403 kts 192°
2026-05-04 19:22 42.63620 8.87172 37045 ft 403 kts 192°
2026-05-04 19:22 42.58033 8.86549 37045 ft 402 kts 192°
2026-05-04 19:23 42.52450 8.85915 37050 ft 403 kts 192°
2026-05-04 19:23 42.46863 8.85282 37053 ft 403 kts 192°
2026-05-04 19:24 42.41284 8.84641 37049 ft 403 kts 192°
2026-05-04 19:24 42.35712 8.84008 37025 ft 400 kts 192°
2026-05-04 19:24 42.32927 8.83694 36882 ft 403 kts 192°
2026-05-04 19:25 42.30136 8.83379 36618 ft 402 kts 192°
2026-05-04 19:25 42.27351 8.83065 36337 ft 402 kts 192°
2026-05-04 19:25 42.24562 8.82751 36079 ft 403 kts 192°
2026-05-04 19:25 42.21770 8.82440 35821 ft 403 kts 192°
2026-05-04 19:26 42.18980 8.82131 35574 ft 402 kts 192°
2026-05-04 19:26 42.16196 8.81825 35329 ft 400 kts 192°
2026-05-04 19:26 42.13425 8.81516 35079 ft 398 kts 192°
2026-05-04 19:26 42.10680 8.81212 34837 ft 396 kts 192°
2026-05-04 19:27 42.07945 8.80910 34513 ft 392 kts 192°
2026-05-04 19:27 42.05235 8.80611 34020 ft 389 kts 192°
2026-05-04 19:27 42.02548 8.80312 33518 ft 385 kts 192°
2026-05-04 19:27 41.99894 8.80016 33055 ft 381 kts 192°
2026-05-04 19:28 41.97266 8.79720 32589 ft 377 kts 192°
2026-05-04 19:28 41.94669 8.79424 32132 ft 373 kts 192°
2026-05-04 19:28 41.92094 8.79133 31676 ft 369 kts 192°
2026-05-04 19:28 41.89543 8.78849 31242 ft 366 kts 192°
2026-05-04 19:29 41.87015 8.78569 30809 ft 363 kts 192°
2026-05-04 19:29 41.84513 8.78292 30382 ft 359 kts 192°
2026-05-04 19:29 41.82034 8.78016 29943 ft 356 kts 192°
2026-05-04 19:29 41.79573 8.77743 29496 ft 353 kts 192°
2026-05-04 19:30 41.77136 8.77515 29074 ft 352 kts 188°
2026-05-04 19:30 41.74713 8.77664 28654 ft 352 kts 184°
2026-05-04 19:30 41.72283 8.77880 28255 ft 348 kts 184°
2026-05-04 19:30 41.69876 8.78092 27839 ft 345 kts 184°
2026-05-04 19:31 41.67492 8.78301 27429 ft 342 kts 183°
2026-05-04 19:31 41.65133 8.78507 27006 ft 338 kts 183°
2026-05-04 19:31 41.62791 8.78707 26583 ft 336 kts 182°
2026-05-04 19:31 41.60469 8.78902 26161 ft 333 kts 182°
2026-05-04 19:32 41.58159 8.79100 25735 ft 332 kts 182°
2026-05-04 19:32 41.55859 8.79299 25293 ft 331 kts 182°
2026-05-04 19:32 41.53562 8.79499 24850 ft 330 kts 181°
2026-05-04 19:32 41.51265 8.79698 24399 ft 330 kts 181°
2026-05-04 19:33 41.48971 8.79894 23931 ft 331 kts 181°
2026-05-04 19:33 41.46677 8.80088 23436 ft 331 kts 180°
2026-05-04 19:33 41.44374 8.80282 22940 ft 330 kts 180°
2026-05-04 19:33 41.42088 8.80476 22488 ft 328 kts 180°
2026-05-04 19:34 41.39815 8.80671 22045 ft 327 kts 180°
2026-05-04 19:34 41.37549 8.80864 21610 ft 326 kts 180°
2026-05-04 19:34 41.35296 8.81115 21172 ft 326 kts 174°
2026-05-04 19:34 41.33097 8.81937 20740 ft 331 kts 161°
2026-05-04 19:35 41.31073 8.83422 20301 ft 336 kts 148°
2026-05-04 19:35 41.29190 8.85270 19858 ft 336 kts 147°
2026-05-04 19:35 41.27308 8.87119 19419 ft 336 kts 147°
2026-05-04 19:35 41.25427 8.88960 18972 ft 337 kts 147°
2026-05-04 19:36 41.23537 8.90802 18536 ft 337 kts 147°
2026-05-04 19:36 41.21648 8.92642 18065 ft 337 kts 147°
2026-05-04 19:36 41.19754 8.94481 17618 ft 336 kts 147°
2026-05-04 19:36 41.17870 8.96308 17186 ft 335 kts 147°
2026-05-04 19:37 41.15997 8.98122 16763 ft 333 kts 147°
2026-05-04 19:37 41.14759 8.99323 16485 ft 332 kts 147°
2026-05-04 19:37 41.12896 9.01135 16066 ft 331 kts 147°
2026-05-04 19:37 41.11039 9.02929 15666 ft 330 kts 148°
2026-05-04 19:38 41.09169 9.04677 15252 ft 329 kts 148°
2026-05-04 19:38 41.07292 9.06401 14830 ft 328 kts 149°
2026-05-04 19:38 41.05416 9.08109 14415 ft 327 kts 149°
2026-05-04 19:38 41.03569 9.09792 13994 ft 316 kts 149°
2026-05-04 19:39 41.01844 9.11527 13577 ft 312 kts 137°
2026-05-04 19:39 41.00688 9.13968 13163 ft 319 kts 111°
2026-05-04 19:39 41.00478 9.16889 12840 ft 323 kts 82°
2026-05-04 19:39 41.01286 9.19647 12623 ft 324 kts 57°
2026-05-04 19:40 41.02558 9.22117 12377 ft 325 kts 55°
2026-05-04 19:40 41.03847 9.24556 12132 ft 325 kts 54°
2026-05-04 19:40 41.05146 9.26996 11880 ft 322 kts 55°
2026-05-04 19:40 41.06128 9.29561 11666 ft 305 kts 78°
2026-05-04 19:41 41.06169 9.32267 11354 ft 290 kts 107°
2026-05-04 19:41 41.05341 9.34625 11107 ft 279 kts 134°
2026-05-04 19:41 41.03925 9.36287 10868 ft 271 kts 150°
2026-05-04 19:41 41.02375 9.37701 10628 ft 270 kts 151°
2026-05-04 19:42 41.00780 9.38981 10378 ft 263 kts 165°
2026-05-04 19:42 40.99024 9.39315 10146 ft 252 kts 191°
2026-05-04 19:42 40.97407 9.38592 9954 ft 244 kts 216°
2026-05-04 19:42 40.96206 9.37037 9820 ft 242 kts 236°
2026-05-04 19:43 40.95248 9.35209 9686 ft 243 kts 235°
2026-05-04 19:43 40.94287 9.33370 9555 ft 243 kts 236°
2026-05-04 19:43 40.93326 9.31530 9422 ft 243 kts 236°
2026-05-04 19:43 40.92365 9.29696 9293 ft 242 kts 236°
2026-05-04 19:44 40.91408 9.27869 9164 ft 241 kts 236°
2026-05-04 19:44 40.90456 9.26052 9035 ft 240 kts 236°
2026-05-04 19:44 40.89503 9.24241 8907 ft 241 kts 235°
2026-05-04 19:44 40.88548 9.22432 8768 ft 240 kts 235°
2026-05-04 19:45 40.87598 9.20632 8646 ft 238 kts 235°
2026-05-04 19:45 40.86649 9.18833 8504 ft 238 kts 235°
2026-05-04 19:45 40.85705 9.17038 8387 ft 238 kts 235°
2026-05-04 19:45 40.84765 9.15250 8258 ft 233 kts 235°
2026-05-04 19:46 40.83853 9.13523 8127 ft 227 kts 236°
2026-05-04 19:46 40.82951 9.11822 8010 ft 226 kts 235°
2026-05-04 19:46 40.82049 9.10124 7884 ft 225 kts 235°
2026-05-04 19:46 40.81152 9.08434 7767 ft 224 kts 235°
2026-05-04 19:47 40.80263 9.06761 7641 ft 222 kts 235°
2026-05-04 19:47 40.79377 9.05096 7517 ft 222 kts 235°
2026-05-04 19:47 40.78504 9.03453 7399 ft 221 kts 235°
2026-05-04 19:47 40.77620 9.01788 7265 ft 222 kts 235°
2026-05-04 19:48 40.76735 9.00123 7144 ft 222 kts 235°
2026-05-04 19:48 40.75815 8.98489 7020 ft 222 kts 225°
2026-05-04 19:48 40.74472 8.97524 6904 ft 227 kts 193°
2026-05-04 19:48 40.72896 8.97803 6851 ft 240 kts 158°
2026-05-04 19:49 40.71473 8.99011 6718 ft 245 kts 150°
2026-05-04 19:49 40.70082 9.00313 6577 ft 245 kts 150°
2026-05-04 19:49 40.68698 9.01627 6403 ft 245 kts 150°
2026-05-04 19:49 40.67329 9.02948 6206 ft 244 kts 145°
2026-05-04 19:50 40.66369 9.04781 6041 ft 248 kts 110°
2026-05-04 19:50 40.66386 9.07013 5879 ft 246 kts 71°
2026-05-04 19:50 40.67269 9.08912 5724 ft 243 kts 54°
2026-05-04 19:50 40.68242 9.10725 5565 ft 241 kts 57°
2026-05-04 19:51 40.69190 9.12539 5421 ft 240 kts 56°
2026-05-04 19:51 40.70152 9.14345 5274 ft 241 kts 56°
2026-05-04 19:51 40.71111 9.16151 5129 ft 240 kts 57°
2026-05-04 19:51 40.72064 9.17950 4988 ft 239 kts 57°
2026-05-04 19:52 40.73015 9.19748 4837 ft 239 kts 57°
2026-05-04 19:52 40.73967 9.21548 4688 ft 239 kts 57°
2026-05-04 19:52 40.74914 9.23339 4553 ft 238 kts 57°
2026-05-04 19:52 40.75857 9.25124 4411 ft 235 kts 58°
2026-05-04 19:53 40.76774 9.26859 4281 ft 225 kts 56°
2026-05-04 19:53 40.77653 9.28524 4139 ft 217 kts 57°
2026-05-04 19:53 40.78505 9.30140 4010 ft 213 kts 58°
2026-05-04 19:53 40.79342 9.31729 3915 ft 209 kts 57°
2026-05-04 19:54 40.80172 9.33303 3654 ft 209 kts 57°
2026-05-04 19:54 40.80993 9.34863 3370 ft 205 kts 57°
2026-05-04 19:54 40.81800 9.36396 3053 ft 202 kts 56°
2026-05-04 19:54 40.82597 9.37910 2745 ft 199 kts 57°
2026-05-04 19:55 40.83379 9.39397 2446 ft 196 kts 56°
2026-05-04 19:55 40.84151 9.40866 2137 ft 194 kts 57°
2026-05-04 19:55 40.84900 9.42291 1870 ft 183 kts 56°
2026-05-04 19:55 40.85601 9.43625 1563 ft 170 kts 57°
2026-05-04 19:56 40.86240 9.44842 1311 ft 157 kts 57°
2026-05-04 19:56 40.86833 9.45971 1083 ft 144 kts 57°
2026-05-04 19:56 40.87384 9.47023 867 ft 137 kts 56°
2026-05-04 19:56 40.87924 9.48054 657 ft 136 kts 56°
2026-05-04 19:57 40.88466 9.49078 431 ft 137 kts 55°
2026-05-04 19:57 40.89010 9.50123 204 ft 138 kts 53°
2026-05-04 19:57 40.89554 9.51165 37 ft 136 kts 53°
2026-05-04 19:57 40.89972 9.51964 33 ft 64 kts 56°
2026-05-04 19:58 40.90180 9.52366 35 ft 50 kts 55°
2026-05-04 19:58 40.90352 9.52669 34 ft 22 kts 32°
2026-05-04 19:58 40.90435 9.52670 33 ft 0 kts 311°
2026-05-04 19:59 40.90436 9.52668 33 ft 3 kts 311°
2026-05-04 19:59 40.90454 9.52569 34 ft 14 kts 274°
2026-05-04 20:00 40.90423 9.52438 34 ft 17 kts 236°
2026-05-04 20:00 40.90352 9.52301 34 ft 20 kts 235°
2026-05-04 20:00 40.90270 9.52143 34 ft 22 kts 235°
2026-05-04 20:00 40.90184 9.51977 34 ft 17 kts 238°
2026-05-04 20:01 40.90186 9.51846 34 ft 13 kts 287°
2026-05-04 20:01 40.90220 9.51771 34 ft 8 kts 276°
2026-05-04 20:01 40.90202 9.51720 34 ft 4 kts 253°
2026-05-04 20:01 40.90213 9.51696 34 ft 3 kts 311°
2026-05-04 20:02 40.90225 9.51681 34 ft 2 kts 322°
2026-05-04 20:02 40.90236 9.51672 34 ft 1 kts 325°
2026-05-04 20:02 40.90241 9.51667 34 ft 1 kts 325°
2026-05-04 20:02 40.90247 9.51662 34 ft 1 kts 326°
2026-05-04 20:03 40.90249 9.51660 34 ft 0 kts 326°